Location: Prairie Dale
(45.6972°N, 104.5033°W)
Time: 19:26:06
(UTC+00:00)

AO-7 - Visible Passes

Search period start: 29 June 2022 00:00
Search period end: 09 July 2022 00:00
Orbit: 1439 x 1459 km, 101.9° (Epoch: 29 June)

Date Brightness Start Highest point End Pass type
(mag) Time Alt. Az. Time Alt. Az. Time Alt. Az.
29 Jun ? 09:40:41 10° NE 09:45:06 15° E 09:49:29 10° ESE visible
30 Jun ? 10:31:31 10° NE 10:38:53 33° E 10:46:13 10° SSE visible
01 Jul ? 09:34:18 10° ENE 09:37:53 13° E 09:41:28 10° ESE visible
02 Jul ? 10:24:37 10° NE 10:31:45 30° E 10:38:51 10° SSE visible
03 Jul ? 09:28:14 10° ENE 09:30:40 11° E 09:33:06 10° ESE visible
04 Jul ? 10:17:44 10° NE 10:24:36 27° E 10:31:26 10° SSE visible
06 Jul ? 10:10:54 10° NE 10:17:27 25° E 10:23:58 10° SE visible
08 Jul ? 10:04:06 10° NE 10:10:17 22° E 10:16:27 10° SE visible
